Location: Doschendorf
(50.0069°N, 11.0602°E)
Time: 18:04:11
(UTC+00:00)

Sich 1 - Pass Details

Date: 17 November 2019
Orbit: 595 x 625 km, 82.5° (Epoch: 05 December)

Event Time Altitude Azimuth Distance (km) Brightness Sun altitude
Rises 16:49:55 0° 349° (N) 2,871 6.4 -12.8°
Reaches altitude 10° 16:52:08 10° 350° (N) 1,968 5.6 -13.1°
Maximum altitude 16:56:30 90° 70° (ENE) 618 3.0 -13.8°
Drops below altitude 10° 17:00:52 10° 171° (S) 1,970 5.7 -14.5°
Sets 17:03:05 0° 172° (S) 2,875 6.5 -14.8°
